Content
SEND FEEDBACK

Daily
Averages
Monthly
Summary
United States of America

FAIRBORN, OHIO


Home > North America > United States > Ohio
Elevation: 763 feet     Latitude: 39 46N     Longitude: 084 10W

WEATHER
 
SELECT A DAY
Number of Records: 211,335;   Date Range: 1/1/95 - 9/3/14
 
SHARE

PRINT THIS DATA

[ ← Previous Day ]
WEATHER ALMANAC - FEBRUARY 13, 2013
[ Next Day → ]
[ °C ]   °F
Weather ElementAverageHighLow
Temperature30.3 °F36 °F (4:55 pm)28 °F (3:55 am)
Dewpoint24.2 °F25.5 °F (1:55 am)21.6 °F (6:55 pm)
Humidity78.3 %86 % (4:32 am)60 % (4:55 pm)
Barometer29.86 in29.92 in (1:55 am)29.79 in (12:28 pm)
Wind Speed5.8 mph9.2 mph (11:55 pm)
Weather ElementAverage
Visibility9.5 mi
Wind DirectionSW (222.3 °)

Weather ElementTotal
Precipitation---
Heating Degree Days33 (Base 65)
Averaged from 26 records on February 13, 2013
WEATHER CONDITIONS BREAKOUT
WIND DIRECTION BREAKOUT
WEATHER BY HOUR - FEBRUARY 13, 2013
[ °C ]   °F
Local TimeTemperatureDewpointHumidityBarometerVisibilityWind DirectionWind SpeedGust SpeedPrecipitationEventsConditions
1:55 AM29.7 °F25.5 °F85 %29.92 in10.0 miNNW (330°)4.6 mphScattered Clouds
2:55 AM28.9 °F24.8 °F84 %29.92 in10.0 miNNW (340°)4.6 mphScattered Clouds
3:55 AM28.0 °F24.1 °F85 %29.90 in10.0 miNNW (330°)8.1 mphMostly Cloudy
4:32 AM28.4 °F24.8 °F86 %29.90 in9.0 miNorth (360°)5.8 mphMostly Cloudy
4:55 AM28.6 °F25.0 °F86 %29.89 in9.0 miNNE (20°)5.8 mphOvercast
5:55 AM29.3 °F24.8 °F83 %29.86 in10.0 miNorth (10°)6.9 mphOvercast
6:55 AM29.3 °F24.4 °F82 %29.83 in10.0 miNorth (360°)8.1 mphOvercast
7:55 AM28.9 °F23.7 °F81 %29.82 in10.0 miNorth (360°)6.9 mphOvercast
8:55 AM29.3 °F23.7 °F80 %29.84 in10.0 miNorth (350°)8.1 mphOvercast
9:55 AM29.8 °F23.9 °F79 %29.87 in10.0 miCalmOvercast
10:55 AM30.6 °F24.4 °F78 %29.86 in10.0 miWest (270°)4.6 mphOvercast
11:47 AM32.0 °F24.8 °F75 %29.81 in5.0 miSW (230°)2.3 mphSnowLight Snow
11:55 AM30.4 °F24.6 °F79 %29.84 in5.0 miCalm0.00 inSnowLight Snow
12:28 PM32.0 °F24.8 °F75 %29.79 in10.0 miWNW (290°)5.8 mphOvercast
12:55 PM31.6 °F24.6 °F75 %29.81 in10.0 miWNW (300°)6.9 mph0.00 inOvercast
1:55 PM32.0 °F24.1 °F73 %29.80 in10.0 miNNW (330°)6.9 mphOvercast
2:55 PM32.9 °F24.1 °F70 %29.80 in10.0 miWNW (290°)6.9 mphOvercast
3:55 PM34.2 °F23.9 °F66 %29.81 in10.0 miWNW (290°)5.8 mphMostly Cloudy
4:55 PM36.0 °F23.4 °F60 %29.81 in10.0 miVariable3.5 mphScattered Clouds
5:55 PM33.3 °F23.0 °F66 %29.83 in10.0 miSSW (200°)4.6 mphPartly Cloudy
6:55 PM28.8 °F21.6 °F74 %29.86 in10.0 miSSW (200°)4.6 mphClear
7:55 PM28.2 °F21.7 °F77 %29.88 in10.0 miSouth (180°)6.9 mphClear
8:55 PM28.9 °F24.4 °F83 %29.88 in10.0 miSouth (180°)6.9 mphClear
9:55 PM29.1 °F25.0 °F85 %29.90 in10.0 miSouth (190°)8.1 mphClear
10:55 PM28.8 °F24.8 °F85 %29.90 in10.0 miSouth (180°)8.1 mphClear
11:55 PM28.4 °F24.4 °F85 %29.90 in10.0 miSouth (190°)9.2 mphClear
Hourly data recorded from KFFO, located miles away from Fairborn, Ohio







STORIES FROM OUR PARTNERS